Tracking 31027 objects as of 19-Jul-2025
HD Live streaming from Space Station
objects crossing your sky now

SL-19 DEB

Track SL-19 DEB now!
10-day predictions


NORAD ID: 23479
Int'l Code: 1994-085C
Perigee: 1,869.1 km
Apogee: 2,015.4 km
Inclination: 65.0 °
Period: 125.7 minutes
Semi major axis: 8313 km
RCS: 0.2064 m2 (medium)
Launch date: December 26, 1994
Source: Commonwealth of Independent States (former USSR) (CIS)
Launch site: TYURATAM MISSILE AND SPACE COMPLEX (TTMTR)

Note: This is SATELLITE DEBRIS
Your satellite tracking list
SL-8 DEB
Track 1 satellite(s)




NASA's NSSDC Master Catalog

Two Line Element Set (TLE):
1 23479U 94085C   25199.57769993  .00001294  00000-0  31504-1 0  9992
2 23479  65.0468  60.3923 0087997  67.2733 317.1320 11.45376090275015
Source of the keplerian elements: AFSPC